Weather History for KDUG - March, 2012

Change the Weather History Date:

Saturday, March 10, 2012

  Actual Average Record
Temperature  
Mean Temperature 46 °F 54 °F  
Max Temperature 58 °F 71 °F 91 °F (1989)
Min Temperature 34 °F 36 °F 21 °F (1974)
Degree Days  
Heating Degree Days 19 11  
Month to date heating degree days 155 122  
Since 1 July heating degree days 1842 2158  
Cooling Degree Days 0 0  
Month to date cooling degree days 0 0  
Year to date cooling degree days 0 0  
Moisture  
Dew Point 25 °F    
Average Humidity 51    
Maximum Humidity 76    
Minimum Humidity 25    
Precipitation  
Precipitation 0.00 in 0.02 in 0.38 in (1965)
Month to date precipitation 0.00 0.19  
Year to date precipitation 0.23 1.58  
Snow  
Snow 0.00 in - - ()
Month to date snowfall 0.0  
Snow Depth 0.00 in    
Sea Level Pressure  
Sea Level Pressure 30.00 in    
Wind  
Wind Speed 8 mph (NNE)    
Max Wind Speed 25 mph    
Max Gust Speed 31 mph    
Visibility 10 miles    
Events      
T = Trace of Precipitation, MM = Missing Value Source: NWS Daily Summary

Daily Weather History Graph

Daily Weather History Graph

Search for Another Location

Airport or City:

Trip Planner

Search our weather history database for the weather conditions in past years. The results will help you decide how hot, cold, wet, or windy it might be!

Date:

Astronomy

Mar. 10, 2012 Rise Set
Actual Time 6:33 AM MST 6:23 PM MST
Civil Twilight 6:09 AM MST 6:47 PM MST
Nautical Twilight 5:41 AM MST 7:15 PM MST
Astronomical Twilight 5:13 AM MST 7:44 PM MST
Moon 9:22 PM MST (3/10) 7:45 AM MST (3/10)
Length of Visible Light 12h 38m
Length of Day
11h 49m
Waning Gibbous, 92% of the Moon is Illuminated
Mar 10
Waning Gibbous
Mar 14
Last Quarter
Mar 22
New
Mar 30
First Quarter
Apr 6
Full

Hourly Weather History & Observations

Time (MST) Temp. Windchill Dew Point Humidity Pressure Visibility Wind Dir Wind Speed Gust Speed Precip Events Conditions
12:56 AM 42.1 °F 32.8 °F 24.1 °F 49% 29.98 in 10.0 mi East 21.9 mph 27.6 mph N/A   Mostly Cloudy
1:56 AM 42.1 °F 34.5 °F 25.0 °F 51% 29.96 in 10.0 mi East 15.0 mph 24.2 mph N/A   Overcast
2:56 AM 41.0 °F 35.8 °F 25.0 °F 53% 29.97 in 10.0 mi ENE 8.1 mph - N/A   Overcast
3:56 AM 41.0 °F 34.3 °F 25.0 °F 53% 29.96 in 10.0 mi NE 11.5 mph - N/A   Overcast
4:56 AM 39.0 °F 33.4 °F 28.0 °F 65% 29.97 in 10.0 mi North 8.1 mph - N/A   Overcast
5:56 AM 37.4 °F 32.1 °F 30.2 °F 75% 30.05 in 10.0 mi North 6.9 mph - N/A   Overcast
6:56 AM 37.9 °F 32.1 °F 30.9 °F 76% 30.01 in 10.0 mi North 8.1 mph - N/A   Overcast
7:56 AM 39.0 °F 33.4 °F 30.9 °F 73% 30.02 in 10.0 mi ENE 8.1 mph - N/A   Mostly Cloudy
8:56 AM 41.0 °F 35.8 °F 32.0 °F 70% 30.04 in 10.0 mi North 8.1 mph - N/A   Overcast
9:56 AM 43.0 °F 41.3 °F 30.9 °F 62% 30.04 in 10.0 mi Variable 3.5 mph - N/A   Mostly Cloudy
10:43 AM 44.6 °F 43.1 °F 30.2 °F 57% 30.08 in 10.0 mi Variable 3.5 mph - N/A   Mostly Cloudy
10:56 AM 46.9 °F - 30.0 °F 52% 30.02 in 10.0 mi NE 4.6 mph - N/A   Mostly Cloudy
11:56 AM 48.9 °F - 28.0 °F 44% 30.01 in 10.0 mi NW 8.1 mph - N/A   Partly Cloudy
12:56 PM 52.0 °F - 26.1 °F 37% 29.98 in 10.0 mi Variable 3.5 mph - N/A   Partly Cloudy
1:56 PM 53.1 °F - 26.1 °F 35% 29.96 in 10.0 mi Variable 4.6 mph - N/A   Clear
2:56 PM 55.0 °F - 25.0 °F 31% 29.94 in 10.0 mi West 10.4 mph - N/A   Clear
3:56 PM 57.0 °F - 23.0 °F 27% 29.94 in 10.0 mi North 8.1 mph - N/A   Scattered Clouds
4:56 PM 55.9 °F - 23.0 °F 28% 29.94 in 10.0 mi North 9.2 mph - N/A   Clear
5:56 PM 54.0 °F - 23.0 °F 30% 29.97 in 10.0 mi North 12.7 mph - N/A   Clear
6:56 PM 48.9 °F - 19.9 °F 32% 30.00 in 10.0 mi ENE 3.5 mph - N/A   Clear
7:56 PM 48.0 °F - 19.0 °F 32% 30.02 in 10.0 mi Calm Calm - N/A   Clear
8:56 PM 42.1 °F 39.2 °F 17.1 °F 37% 30.05 in 10.0 mi WNW 4.6 mph - N/A   Clear
9:56 PM 39.9 °F 37.8 °F 18.0 °F 41% 30.06 in 10.0 mi NW 3.5 mph - N/A   Clear
10:56 PM 36.0 °F 32.1 °F 15.1 °F 43% 30.06 in 10.0 mi Variable 4.6 mph - N/A   Clear
11:56 PM 34.0 °F 28.8 °F 15.1 °F 46% 30.06 in 10.0 mi East 5.8 mph - N/A   Clear